Hourly Data Report for October 26, 2016

All times are specified in Local Standard Time (LST). Add 1 hour to adjust for Daylight Saving Time where and when it is observed.

KITCHENER/WATERLOO
ONTARIO

43°27'39.000" N
80°22'43.000" W
321.60 m
6144239
71368
YKF

Download Data

Hourly Data (October 2016)
Hourly Data Report for October 26, 2016
Temp Definition
°C
Dew Point Temp Definition
°C
Rel Hum Definition
%
Wind Dir Definition
10's deg

Wind Spd Definition
km/h
Visibility Definition
km
Stn Press Definition
kPa
Hmdx Definition


Wind Chill Definition


Weather Definition


TIME
00:00 Legend Double Dagger -1.9 -3.9 86 34 9 16.1 99.18   -5 LegendNANA
01:00 Legend Double Dagger -3.4 -4.4 93 LegendMM 4 16.1 99.16   -5 LegendNANA
02:00 Legend Double Dagger -4.6 -5.4 94 30 4 16.1 99.18   -6 LegendNANA
03:00 Legend Double Dagger -4.4 -5.2 94 31 4 16.1 99.23   -6 LegendNANA
04:00 Legend Double Dagger -4.5 -4.9 97   0 16.1 99.26     LegendNANA
05:00 Legend Double Dagger -4.5 -4.9 97 LegendMM 4 16.1 99.32   -6 LegendNANA
06:00 Legend Double Dagger -5.6 -6.1 96   0 16.1 99.35     LegendNANA
07:00 Legend Double Dagger -4.6 -5.1 96 36 4 16.1 99.35   -6 LegendNANA
08:00 Legend Double Dagger -3.1 -3.7 96 LegendMM 4 16.1 99.37   -5 LegendNANA
09:00 Legend Double Dagger 0.0 -2.6 83 6 8 16.1 99.33   -3 LegendNANA
10:00 Legend Double Dagger 2.2 -4.2 63 7 9 16.1 99.35     LegendNANA
11:00 Legend Double Dagger 3.6 -5.6 51 10 13 16.1 99.35     LegendNANA
12:00 Legend Double Dagger 4.0 -5.7 49 10 11 16.1 99.27     LegendNANA
13:00 Legend Double Dagger 4.4 -6.2 46 8 15 16.1 99.19     LegendNANA
14:00 Legend Double Dagger 4.2 -5.3 50 8 13 16.1 99.12     LegendNANA
15:00 Legend Double Dagger 4.0 -5.8 49 10 15 16.1 99.08     LegendNANA
16:00 Legend Double Dagger 3.5 -5.5 52 9 18 16.1 99.01     LegendNANA
17:00 Legend Double Dagger 2.9 -4.2 60 11 13 16.1 99.00     LegendNANA
18:00 Legend Double Dagger 2.6 -4.9 58 10 15 16.1 99.03     LegendNANA
19:00 Legend Double Dagger 2.5 -4.3 61 8 15 16.1 98.96     LegendNANA
20:00 Legend Double Dagger 2.6 -3.6 64 8 17 16.1 98.88     LegendNANA
21:00 Legend Double Dagger 3.1 -1.8 70 9 18 16.1 98.85     LegendNANA
22:00 Legend Double Dagger 3.1 -0.2 79 10 30 16.1 98.78     Rain
23:00 Legend Double Dagger 2.1 0.5 89 10 21 16.1 98.76     Rain

Notes on Data Quality.

Legend

  • E = Estimated
  • M = Missing
  • NA = Not Available
  • ‡ = Partner data that is not subject to review by the National Climate Archives
Date modified: